FW0069 Weather Reports


Display with metric or nautical units.
time (UTC)temp
F
wind
direction
speed
MPH
gust
MPH
rain 1hr
in
rain 24hr
in
rain mn
in
humidity
%
barometer
mb
20260508170024 88 80 2.0 6.0 0.00 0.00 0.00 11 1014.2
20260508165024 88 360 4.0 6.0 0.00 0.00 0.00 11 1014.5
20260508164524 88 360 0.0 7.0 0.00 0.00 0.00 12 1014.7
20260508163524 86 360 3.0 7.0 0.00 0.00 0.00 13 1014.4
20260508163024 86 68 7.0 7.0 0.00 0.00 0.00 12 1014.5
20260508162024 86 360 4.0 7.0 0.00 0.00 0.00 12 1014.4
20260508161524 85 360 3.0 7.0 0.00 0.00 0.00 12 1014.2
20260508161024 84 360 5.0 8.0 0.00 0.00 0.00 13 1014.2
20260508160524 84 360 3.0 8.0 0.00 0.00 0.00 13 1014.3
20260508155524 83 93 3.0 7.0 0.00 0.00 0.00 14 1014.3
20260508154524 82 93 6.0 7.0 0.00 0.00 0.00 14 1014.3
20260508154023 82 87 5.0 7.0 0.00 0.00 0.00 14 1014.3
20260508153523 81 77 4.0 6.0 0.00 0.00 0.00 16 1014.3
20260508153024 81 46 3.0 6.0 0.00 0.00 0.00 14 1014.3
20260508151524 80 84 3.0 6.0 0.00 0.00 0.00 14 1014.2
20260508151023 80 55 2.0 5.0 0.00 0.00 0.00 16 1014.1
20260508150523 80 56 3.0 5.0 0.00 0.00 0.00 17 1014.1
20260508145524 79 45 2.0 3.0 0.00 0.00 0.00 16 1014.3
20260508144523 79 247 1.0 4.0 0.00 0.00 0.00 16 1014.4
20260508144024 79 248 0.0 4.0 0.00 0.00 0.00 16 1014.4
20260508143524 79 360 4.0 7.0 0.00 0.00 0.00 18 1014.3
20260508143024 78 360 4.0 9.0 0.00 0.00 0.00 17 1014.1
20260508142523 78 360 5.0 10.0 0.00 0.00 0.00 17 1014.1
20260508142023 77 360 6.0 10.0 0.00 0.00 0.00 17 1014.1
20260508141524 76 360 9.0 12.0 0.00 0.00 0.00 17 1013.9
20260508141023 75 234 6.0 12.0 0.00 0.00 0.00 18 1013.8
20260508140524 75 270 6.0 10.0 0.00 0.00 0.00 18 1013.8
20260508140023 75 360 6.0 10.0 0.00 0.00 0.00 18 1013.9
20260508135524 75 360 7.0 10.0 0.00 0.00 0.00 18 1014.0
20260508135024 75 240 4.0 12.0 0.00 0.00 0.00 17 1013.9
20260508134024 74 254 5.0 12.0 0.00 0.00 0.00 17 1013.7
20260508133523 74 360 3.0 12.0 0.00 0.00 0.00 17 1013.7
20260508133024 74 360 6.0 9.0 0.00 0.00 0.00 17 1013.7
20260508132524 74 248 7.0 10.0 0.00 0.00 0.00 17 1013.7
20260508132023 74 238 5.0 10.0 0.00 0.00 0.00 17 1013.6
20260508131524 74 271 3.0 10.0 0.00 0.00 0.00 17 1013.6
20260508130523 73 360 5.0 8.0 0.00 0.00 0.00 17 1013.3
20260508130023 73 360 5.0 12.0 0.00 0.00 0.00 17 1013.0
20260508125523 73 360 5.0 12.0 0.00 0.00 0.00 17 1013.4
20260508125023 73 236 6.0 11.0 0.00 0.00 0.00 17 1013.3
20260508124523 73 360 7.0 10.0 0.00 0.00 0.00 17 1013.2
20260508123024 73 360 5.0 9.0 0.00 0.00 0.00 17 1013.2
20260508122524 73 360 5.0 9.0 0.00 0.00 0.00 17 1013.2
20260508122024 72 360 8.0 10.0 0.00 0.00 0.00 16 1013.1
20260508121523 72 360 7.0 10.0 0.00 0.00 0.00 17 1013.2
20260508121023 71 360 5.0 9.0 0.00 0.00 0.00 17 1013.1
20260508120523 71 273 5.0 9.0 0.00 0.00 0.00 17 1013.1
20260508115524 70 360 3.0 11.0 0.00 0.00 0.00 16 1013.0
20260508115023 70 360 6.0 11.0 0.00 0.00 0.00 16 1013.0
20260508114523 70 223 7.0 11.0 0.00 0.00 0.00 17 1013.0
20260508113524 70 360 6.0 7.0 0.00 0.00 0.00 16 1012.9
20260508112524 70 294 5.0 5.0 0.00 0.00 0.00 16 1012.8
20260508111023 71 311 2.0 6.0 0.00 0.00 0.00 16 1013.0
20260508110524 71 317 4.0 8.0 0.00 0.00 0.00 16 1012.9
20260508105523 71 220 5.0 10.0 0.00 0.00 0.00 15 1012.8
20260508105023 71 360 5.0 11.0 0.00 0.00 0.00 15 1012.8
20260508104523 71 360 8.0 11.0 0.00 0.00 0.00 15 1012.8
20260508104024 71 360 5.0 9.0 0.00 0.00 0.00 16 1012.9
20260508103523 71 360 7.0 13.0 0.00 0.00 0.00 15 1012.8
20260508103023 72 311 5.0 14.0 0.00 0.00 0.00 15 1012.8
20260508102523 72 360 8.0 14.0 0.00 0.00 0.00 15 1012.8
20260508102024 72 360 10.0 14.0 0.00 0.00 0.00 15 1012.8
20260508101523 72 360 11.0 14.0 0.00 0.00 0.00 15 1012.7
20260508101023 72 284 11.0 13.0 0.00 0.00 0.00 15 1012.8
20260508100523 72 246 6.0 12.0 0.00 0.00 0.00 15 1012.8
20260508100023 73 273 3.0 12.0 0.00 0.00 0.00 14 1012.9
20260508095023 73 360 6.0 11.0 0.00 0.00 0.00 14 1012.8
20260508094524 74 360 9.0 13.0 0.00 0.00 0.00 14 1012.8
20260508094023 74 360 4.0 13.0 0.00 0.00 0.00 14 1012.8
20260508093523 74 290 4.0 13.0 0.00 0.00 0.00 14 1012.8
20260508093024 74 308 5.0 11.0 0.00 0.00 0.00 14 1012.8
20260508092524 74 360 10.0 11.0 0.00 0.00 0.00 13 1012.7
20260508092024 75 360 5.0 12.0 0.00 0.00 0.00 14 1012.6
20260508091524 75 253 6.0 13.0 0.00 0.00 0.00 14 1012.7
20260508091024 74 360 2.0 14.0 0.00 0.00 0.00 14 1012.7
20260508090523 74 360 5.0 14.0 0.00 0.00 0.00 14 1012.7
20260508090024 74 259 6.0 11.0 0.00 0.00 0.00 14 1012.7
20260508085523 74 360 8.0 11.0 0.00 0.00 0.00 14 1012.7
20260508085023 74 360 4.0 11.0 0.00 0.00 0.00 14 1012.7
20260508084523 74 360 3.0 10.0 0.00 0.00 0.00 14 1012.7
20260508084023 74 291 4.0 11.0 0.00 0.00 0.00 14 1012.7
20260508083524 74 360 8.0 11.0 0.00 0.00 0.00 15 1012.6
20260508082524 73 263 3.0 6.0 0.00 0.00 0.00 15 1012.6
20260508082023 73 269 2.0 6.0 0.00 0.00 0.00 15 1012.6
20260508081023 74 273 4.0 5.0 0.00 0.00 0.00 15 1012.7
20260508080523 74 277 4.0 6.0 0.00 0.00 0.00 15 1012.8
20260508080023 74 360 2.0 7.0 0.00 0.00 0.00 15 1012.8
20260508075523 75 294 5.0 9.0 0.00 0.00 0.00 15 1012.8
20260508075023 75 277 2.0 9.0 0.00 0.00 0.00 14 1012.8
20260508074523 75 360 9.0 9.0 0.00 0.00 0.00 14 1012.8
20260508074023 75 360 4.0 9.0 0.00 0.00 0.00 14 1012.7
20260508073023 75 294 2.0 9.0 0.00 0.00 0.00 14 1012.7
20260508072023 75 272 4.0 7.0 0.00 0.00 0.00 14 1012.7
20260508071523 75 250 4.0 7.0 0.00 0.00 0.00 15 1012.9
20260508071024 74 360 4.0 7.0 0.00 0.00 0.00 15 1012.8
20260508070523 74 265 2.0 5.0 0.00 0.00 0.00 15 1012.9
20260508070023 74 360 4.0 5.0 0.00 0.00 0.00 15 1012.8
20260508065523 74 271 1.0 3.0 0.00 0.00 0.00 15 1012.6
20260508065023 75 277 1.0 4.0 0.00 0.00 0.00 15 1012.6
20260508064524 75 280 2.0 4.0 0.00 0.00 0.00 15 1012.6
20260508064023 75 271 4.0 5.0 0.00 0.00 0.00 15 1012.6
20260508062523 75 287 2.0 7.0 0.00 0.00 0.00 15 1012.5
20260508062023 75 360 3.0 5.0 0.00 0.00 0.00 15 1012.5
20260508061523 75 292 2.0 5.0 0.00 0.00 0.00 15 1012.5
20260508061023 76 275 1.0 5.0 0.00 0.00 0.00 16 1012.6
20260508060523 76 360 2.0 6.0 0.00 0.00 0.00 16 1012.6
20260508055523 76 360 4.0 4.0 0.00 0.00 0.00 16 1012.4
20260508055023 77 28 2.0 4.0 0.00 0.00 0.00 16 1012.4
20260508054523 77 53 2.0 2.0 0.00 0.00 0.00 16 1012.4
20260508054023 77 52 0.0 2.0 0.00 0.00 0.00 16 1012.4
20260508053523 78 53 2.0 2.0 0.00 0.00 0.00 15 1012.5
20260508052523 78 53 0.0 2.0 0.00 0.00 0.00 15 1012.6
20260508051523 79 53 0.0 2.0 0.00 0.00 0.00 15 1012.6
20260508051023 80 53 1.0 1.0 0.00 0.00 0.00 15 1012.8
20260508050523 80 53 1.0 1.0 0.00 0.00 0.00 14 1012.8
20260508050023 80 53 0.0 2.0 0.00 0.00 0.00 14 1012.7
20260508045523 80 53 0.0 2.0 0.00 0.00 0.00 14 1012.6
20260508045023 81 53 1.0 2.0 0.00 0.00 0.00 13 1012.7
20260508044523 81 53 1.0 4.0 0.00 0.00 0.00 13 1012.7
20260508044024 81 54 1.0 5.0 0.00 0.00 0.00 13 1012.6
20260508043523 82 53 2.0 5.0 0.00 0.00 0.00 13 1012.7
20260508043023 82 360 2.0 3.0 0.00 0.00 0.00 12 1012.7
20260508042524 82 60 1.0 4.0 0.00 0.00 0.00 12 1012.8
20260508042023 82 60 2.0 4.0 0.00 0.00 0.00 12 1012.7
20260508041523 83 61 2.0 5.0 0.00 0.00 0.00 12 1012.9
20260508041024 83 61 4.0 5.0 0.00 0.00 0.00 12 1012.7
20260508040523 83 67 2.0 7.0 0.00 0.00 0.00 12 1012.7
20260508040022 83 360 3.0 7.0 0.00 0.00 0.00 12 1012.8
20260508035022 84 360 4.0 5.0 0.00 0.00 0.00 12 1012.5
20260508034523 84 360 2.0 5.0 0.00 0.00 0.00 11 1012.5
20260508034023 84 59 1.0 5.0 0.00 0.00 0.00 12 1012.4
20260508033522 85 360 3.0 6.0 0.00 0.00 0.00 11 1012.4
20260508033022 85 63 5.0 6.0 0.00 0.00 0.00 11 1012.2
20260508032523 85 49 4.0 5.0 0.00 0.00 0.00 11 1012.3
20260508032024 86 63 4.0 5.0 0.00 0.00 0.00 11 1012.4
20260508031523 86 44 3.0 5.0 0.00 0.00 0.00 13 1012.4
20260508030523 87 360 1.0 3.0 0.00 0.00 0.00 13 1012.3
20260508030023 87 360 1.0 3.0 0.00 0.00 0.00 13 1012.2
20260508025522 88 360 1.0 3.0 0.00 0.00 0.00 13 1011.9
20260508025022 88 360 0.0 3.0 0.00 0.00 0.00 12 1011.7
20260508024522 88 360 2.0 4.0 0.00 0.00 0.00 12 1011.7
20260508024022 88 360 1.0 6.0 0.00 0.00 0.00 12 1011.7
20260508023523 89 360 4.0 7.0 0.00 0.00 0.00 12 1011.5
20260508023023 89 360 4.0 7.0 0.00 0.00 0.00 12 1011.5
20260508022523 89 360 3.0 5.0 0.00 0.00 0.00 12 1011.5
20260508022022 89 360 2.0 6.0 0.00 0.00 0.00 12 1011.5
20260508021523 90 360 2.0 6.0 0.00 0.00 0.00 12 1011.6
20260508021022 90 360 4.0 7.0 0.00 0.00 0.00 11 1011.5
20260508020522 90 360 3.0 7.0 0.00 0.00 0.00 11 1011.5
20260508020022 90 360 1.0 5.0 0.00 0.00 0.00 11 1011.5
20260508015522 90 360 4.0 7.0 0.00 0.00 0.00 10 1010.7
20260508015022 90 360 3.0 7.0 0.00 0.00 0.00 10 1011.0
20260508014522 90 360 3.0 8.0 0.00 0.00 0.00 10 1010.9
20260508013523 91 360 3.0 9.0 0.00 0.00 0.00 10 1010.9
20260508012522 91 360 3.0 8.0 0.00 0.00 0.00 10 1010.7
20260508012023 91 360 7.0 8.0 0.00 0.00 0.00 10 1010.7
20260508011523 91 360 6.0 8.0 0.00 0.00 0.00 10 1010.9
20260508010523 92 360 4.0 8.0 0.00 0.00 0.00 9 1011.0
20260508010023 92 360 5.0 8.0 0.00 0.00 0.00 10 1011.1
20260508005523 92 191 2.0 9.0 0.00 0.00 0.00 10 1010.9
20260508005023 92 360 3.0 9.0 0.00 0.00 0.00 9 1011.0
20260508004522 92 220 4.0 9.0 0.00 0.00 0.00 9 1011.0
20260508004022 92 360 5.0 11.0 0.00 0.00 0.00 9 1011.1
20260508003522 92 360 7.0 11.0 0.00 0.00 0.00 9 1011.1
20260508003023 92 360 5.0 10.0 0.00 0.00 0.00 9 1010.9
20260508002522 92 360 5.0 10.0 0.00 0.00 0.00 9 1010.9
20260508002022 92 360 10.0 10.0 0.00 0.00 0.00 10 1011.2
20260508001523 92 360 3.0 12.0 0.00 0.00 0.00 10 1011.4
20260508001023 92 360 6.0 12.0 0.00 0.00 0.00 9 1011.3
20260508000023 92 360 3.0 10.0 0.00 0.00 0.00 10 1011.4
20260507235523 92 360 5.0 10.0 0.00 0.00 0.00 10 1011.5
20260507235022 92 360 7.0 10.0 0.00 0.00 0.00 10 1011.6
20260507234022 92 360 3.0 4.0 0.00 0.00 0.00 10 1011.7
20260507233522 92 159 3.0 7.0 0.00 0.00 0.00 9 1011.8
20260507233023 92 360 3.0 7.0 0.00 0.00 0.00 9 1011.9
20260507232523 91 360 1.0 6.0 0.00 0.00 0.00 10 1011.8
20260507232022 91 360 2.0 6.0 0.00 0.00 0.00 9 1011.8
20260507231022 91 360 3.0 7.0 0.00 0.00 0.00 10 1012.1
20260507230523 91 360 4.0 7.0 0.00 0.00 0.00 10 1012.0
20260507230023 91 229 5.0 5.0 0.00 0.00 0.00 10 1012.2
20260507225522 91 151 2.0 7.0 0.00 0.00 0.00 9 1012.4
20260507225023 91 360 1.0 10.0 0.00 0.00 0.00 9 1012.4
20260507224522 91 360 4.0 10.0 0.00 0.00 0.00 10 1012.7
20260507224023 90 360 7.0 8.0 0.00 0.00 0.00 10 1012.6
20260507223522 91 360 2.0 8.0 0.00 0.00 0.00 9 1012.7
20260507223022 91 360 6.0 8.0 0.00 0.00 0.00 9 1012.8
20260507222522 91 360 7.0 8.0 0.00 0.00 0.00 9 1012.9
20260507222022 90 109 3.0 6.0 0.00 0.00 0.00 9 1012.8
20260507221523 90 360 5.0 6.0 0.00 0.00 0.00 10 1013.1
20260507221023 91 360 5.0 5.0 0.00 0.00 0.00 9 1013.2
20260507220022 90 98 1.0 6.0 0.00 0.00 0.00 10 1013.2
20260507215022 89 22 4.0 7.0 0.00 0.00 0.00 10 1013.5
20260507214523 89 153 2.0 5.0 0.00 0.00 0.00 10 1013.7
20260507214022 88 46 3.0 5.0 0.00 0.00 0.00 10 1014.0
20260507213022 89 53 0.0 6.0 0.00 0.00 0.00 10 1014.1
20260507212022 89 328 2.0 6.0 0.00 0.00 0.00 10 1014.3
20260507211522 89 360 3.0 6.0 0.00 0.00 0.00 10 1014.4
20260507211022 89 360 2.0 8.0 0.00 0.00 0.00 10 1014.5
20260507210523 90 360 0.0 8.0 0.00 0.00 0.00 9 1014.7
20260507210022 89 360 0.0 5.0 0.00 0.00 0.00 10 1014.6
20260507205522 89 140 3.0 5.0 0.00 0.00 0.00 10 1014.9
20260507205022 89 360 2.0 7.0 0.00 0.00 0.00 9 1015.1
20260507204522 90 360 3.0 9.0 0.00 0.00 0.00 10 1015.1
20260507204022 89 360 4.0 9.0 0.00 0.00 0.00 10 1015.3
20260507203522 87 360 3.0 9.0 0.00 0.00 0.00 11 1015.4
20260507202522 88 360 2.0 7.0 0.00 0.00 0.00 10 1015.5
20260507202022 87 62 0.0 4.0 0.00 0.00 0.00 10 1015.6
20260507201524 88 360 1.0 7.0 0.00 0.00 0.00 10 1015.7
20260507201022 88 360 2.0 8.0 0.00 0.00 0.00 10 1015.8
20260507200522 88 360 4.0 8.0 0.00 0.00 0.00 10 1015.9
20260507195522 88 360 3.0 6.0 0.00 0.00 0.00 10 1016.1
20260507195022 88 360 2.0 7.0 0.00 0.00 0.00 9 1016.2
20260507194522 88 360 2.0 7.0 0.00 0.00 0.00 10 1016.4
20260507193522 88 360 2.0 6.0 0.00 0.00 0.00 10 1016.5
20260507192522 86 360 2.0 5.0 0.00 0.00 0.00 10 1016.5
20260507192022 86 360 3.0 7.0 0.00 0.00 0.00 10 1016.7
20260507191523 86 360 3.0 7.0 0.00 0.00 0.00 11 1016.9
20260507191022 86 90 2.0 9.0 0.00 0.00 0.00 10 1016.8
20260507190522 86 360 3.0 9.0 0.00 0.00 0.00 11 1017.1
20260507190022 86 360 3.0 8.0 0.00 0.00 0.00 10 1017.1
20260507185522 86 360 3.0 8.0 0.00 0.00 0.00 10 1017.1
20260507185022 85 360 4.0 8.0 0.00 0.00 0.00 11 1017.1
20260507184022 85 360 1.0 7.0 0.00 0.00 0.00 10 1017.3
20260507183522 85 360 1.0 7.0 0.00 0.00 0.00 10 1017.4
20260507182022 84 360 4.0 8.0 0.00 0.00 0.00 12 1017.5
20260507181523 83 360 4.0 8.0 0.00 0.00 0.00 11 1017.5
20260507181022 83 360 1.0 8.0 0.00 0.00 0.00 11 1017.7
20260507180523 83 125 2.0 8.0 0.00 0.00 0.00 12 1017.7
20260507180022 82 360 2.0 7.0 0.00 0.00 0.00 12 1017.6
20260507175022 82 360 4.0 7.0 0.00 0.00 0.00 12 1017.9
20260507173022 82 360 2.0 7.0 0.00 0.00 0.00 13 1018.1
20260507172523 81 360 2.0 6.0 0.00 0.00 0.00 14 1018.1
20260507171522 81 79 5.0 8.0 0.00 0.00 0.00 15 1018.1
20260507171022 81 107 4.0 7.0 0.00 0.00 0.00 14 1018.3
20260507170522 81 360 2.0 5.0 0.00 0.00 0.00 15 1018.3